Weather History for Port Angeles, WA

Change the Weather History Date:

Friday, September 20, 2013

  Actual Average Record
Temperature  
Mean Temperature 56 °F -  
Max Temperature 68 °F 65 °F 80 °F (1974)
Min Temperature 48 °F 47 °F 39 °F (2002)
Degree Days  
Heating Degree Days 9    
Growing Degree Days 6 (Base 50)    
Moisture  
Dew Point 53 °F    
Average Humidity 88    
Maximum Humidity 97    
Minimum Humidity 61    
Precipitation  
Precipitation 0.52 in - - ()
Sea Level Pressure  
Sea Level Pressure 29.65 in    
Wind  
Wind Speed 4 mph (West)    
Max Wind Speed 8 mph    
Max Gust Speed -    
Visibility 7 miles    
Events Rain    
Averages and records for this station are not official NWS values.
T = Trace of Precipitation, MM = Missing Value Source: NWS Daily Summary

Daily Weather History Graph

Daily Weather History Graph

Search for Another Location

Airport:

Trip Planner

Search our weather history database for the weather conditions in past years. The results will help you decide how hot, cold, wet, or windy it might be!

Date:

Astronomy

Sep. 20, 2013 Rise Set
Actual Time 6:58 AM PDT 7:15 PM PDT
Civil Twilight 6:27 AM PDT 7:46 PM PDT
Nautical Twilight 5:50 AM PDT 8:22 PM PDT
Astronomical Twilight 5:12 AM PDT 9:00 PM PDT
Moon 7:40 PM PDT (9/20) 8:28 AM PDT (9/20)
Length of Visible Light 13h 18m
Length of Day
12h 16m
Full, 98% of the Moon is Illuminated
Sep 20
Full
Sep 26
Last Quarter
Oct 4
New
Oct 11
First Quarter
Oct 18
Full

Hourly Weather History & Observations

Time (PDT) Temp. Dew Point Humidity Pressure Visibility Wind Dir Wind Speed Gust Speed Precip Events Conditions
12:53 AM 50.0 °F 46.0 °F 86% 29.75 in 10.0 mi SW 6.9 mph - N/A   Clear
1:53 AM 52.0 °F 46.9 °F 83% 29.75 in 10.0 mi SW 8.1 mph - N/A   Clear
2:53 AM 50.0 °F 46.9 °F 89% 29.73 in 10.0 mi SW 5.8 mph - N/A   Clear
3:53 AM 48.9 °F 46.0 °F 90% 29.72 in 10.0 mi SW 6.9 mph - N/A   Clear
4:53 AM 50.0 °F 46.0 °F 86% 29.70 in 10.0 mi SW 6.9 mph - N/A   Clear
5:53 AM 52.0 °F 46.0 °F 80% 29.67 in 10.0 mi SW 8.1 mph - N/A   Clear
6:53 AM 50.0 °F 46.0 °F 86% 29.66 in 10.0 mi Calm Calm - N/A   Clear
7:53 AM 50.0 °F 46.9 °F 89% 29.65 in 10.0 mi Calm Calm - N/A   Clear
8:53 AM 55.0 °F 50.0 °F 83% 29.64 in 10.0 mi Calm Calm - N/A   Clear
9:53 AM 55.0 °F 48.9 °F 80% 29.65 in 10.0 mi NE 5.8 mph - N/A   Clear
10:53 AM 57.0 °F 48.9 °F 74% 29.66 in 10.0 mi NNW 8.1 mph - N/A   Clear
11:53 AM 60.1 °F 48.0 °F 64% 29.65 in 10.0 mi Calm Calm - N/A   Clear
12:53 PM 64.9 °F 51.1 °F 61% 29.63 in 10.0 mi Calm Calm - N/A   Clear
1:53 PM 64.9 °F 51.1 °F 61% 29.62 in 10.0 mi Variable 3.5 mph - N/A   Clear
2:53 PM 64.9 °F 53.1 °F 65% 29.61 in 10.0 mi WNW 8.1 mph - N/A   Clear
3:53 PM 64.0 °F 53.1 °F 67% 29.61 in 10.0 mi West 5.8 mph - N/A   Mostly Cloudy
4:36 PM 59.0 °F 55.9 °F 90% 29.61 in 1.5 mi West 4.6 mph - 0.08 in Rain Heavy Rain
4:53 PM 57.9 °F 55.9 °F 93% 29.62 in 2.5 mi NW 5.8 mph - 0.15 in Rain Rain
5:02 PM 57.9 °F 55.9 °F 93% 29.62 in 5.0 mi NNW 4.6 mph - 0.02 in Rain Light Rain
5:53 PM 59.0 °F 55.9 °F 90% 29.61 in 10.0 mi Calm Calm - 0.03 in Rain Light Rain
6:53 PM 59.0 °F 57.0 °F 93% 29.62 in 10.0 mi Calm Calm - 0.00 in   Mostly Cloudy
7:53 PM 59.0 °F 57.0 °F 93% 29.63 in 10.0 mi SSW 3.5 mph - N/A   Overcast
8:11 PM 59.0 °F 57.0 °F 93% 29.63 in 10.0 mi SSW 3.5 mph - N/A   Overcast
8:40 PM 59.0 °F 57.0 °F 93% 29.63 in 1.8 mi Calm Calm - 0.12 in Rain Heavy Rain
8:49 PM 59.0 °F 57.2 °F 94% 29.63 in 3.0 mi Calm Calm - 0.14 in Rain Light Rain
8:53 PM 57.9 °F 57.0 °F 97% 29.63 in 5.0 mi Calm Calm - 0.15 in Rain Light Rain
9:17 PM 57.9 °F 57.0 °F 97% 29.64 in 10.0 mi Calm Calm - 0.01 in   Overcast
9:41 PM 59.0 °F 57.0 °F 93% 29.64 in 2.5 mi Calm Calm - 0.05 in Rain Rain
9:53 PM 57.9 °F 57.0 °F 97% 29.64 in 3.0 mi Calm Calm - 0.10 in Rain Rain
10:02 PM 57.9 °F 57.0 °F 97% 29.64 in 2.5 mi NW 3.5 mph - 0.03 in Rain Rain
10:08 PM 57.9 °F 57.0 °F 97% 29.64 in 3.0 mi Calm Calm - 0.06 in Rain Rain
10:22 PM 57.9 °F 57.0 °F 97% 29.63 in 6.0 mi Calm Calm - 0.08 in Rain Light Rain
10:28 PM 57.9 °F 57.0 °F 97% 29.63 in 6.0 mi Calm Calm - 0.08 in Rain Light Rain
10:35 PM 57.9 °F 57.0 °F 97% 29.63 in 7.0 mi Calm Calm - 0.09 in Rain Light Rain
10:53 PM 57.9 °F 55.9 °F 93% 29.62 in 10.0 mi SE 3.5 mph - 0.09 in   Mostly Cloudy
11:18 PM 57.9 °F 55.9 °F 93% 29.63 in 10.0 mi North 4.6 mph - N/A   Mostly Cloudy
11:37 PM 57.0 °F 55.9 °F 96% 29.64 in 2.5 mi Calm Calm - N/A   Overcast
11:53 PM 57.0 °F 55.9 °F 96% 29.65 in 1.0 mi Variable 3.5 mph - N/A   Overcast
11:59 PM 57.0 °F 55.9 °F 96% 29.65 in 3.0 mi Calm Calm - N/A   Overcast